490 
ASUS46 KSEW 072310
RWRWA 

WASHINGTON REGIONAL WEATHER ROUNDUP
NATIONAL WEATHER SERVICE SEATTLE WA
400 PM PDT TUE JUL 07 2015

NOTE:"FAIR" INDICATES FEW OR NO CLOUDS BELOW 12,000 FEET WITH NO 
SIGNIFICANT WEATHER AND/OR OBSTRUCTIONS TO VISIBILITY.

WAZ505-507>509-080000-
SEATTLE, TACOMA, EVERETT, AND VICINITY
  
CITY           SKY/WX    TMP DP  RH WIND       PRES   REMARKS
EVERETT        SUNNY     72  55  55 NW7       29.97F                  
BOEING FIELD   CLOUDY    80  53  39 VRB3      29.93F                  
RENTON         SUNNY     79  57  46 N7        29.93F                  
SEATAC AIRPORT PTSUNNY   78  54  43 W7        29.95F                  
JBLM-MCCHORD   SUNNY     80  57  44 VRB6      29.93F                  
PUYALLUP       FAIR      82  57  42 CALM      29.94F                  
BREMERTON      SUNNY     81  57  44 NE8       29.96F                  
JBLM-FT LEWIS  SUNNY     80  56  42 W8        29.93F                  
TACOMA NARROWS SUNNY     79  54  41 VRB5      29.94F                  
$$
 
WAZ001-503-506-510-514-515-080000-
NORTH INTERIOR
  
CITY           SKY/WX    TMP DP  RH WIND       PRES   REMARKS
BELLINGHAM     SUNNY     72  57  59 S6        29.95F                  
FRIDAY HARBOR  SUNNY     68  54  60 E8        29.97F                  
EASTSOUND      SUNNY     66  55  68 N5        29.94F                  
PORT ANGELES   SUNNY     66  53  63 NW12      29.98F                  
PORT TOWNSEND  FAIR      68  55  64 VRB7      29.96F                  
NAS WHIDBEY    PTSUNNY   64  54  69 W8        30.01F                  
ARLINGTON      SUNNY     75  55  50 NW10      29.95F                  
BURLINGTON     SUNNY     75  57  53 VRB6G13   29.95F                  
$$
 
WAZ020-022-039-040-504-511-512-080000-
SOUTHWEST INTERIOR
  
CITY           SKY/WX    TMP DP  RH WIND       PRES   REMARKS
SHELTON        SUNNY     83  51  33 MISG      29.91F                  
OLYMPIA        SUNNY     82  54  37 CALM      29.93F                  
CHEHALIS       FAIR      84  59  42 VRB7      29.93F                  
KELSO          SUNNY    N/A N/A N/A NW7       29.94F                  
VANCOUVER      SUNNY     84  53  34 VRB7      29.88F                  
SCAPPOOSE, OR  SUNNY     84  59  42 E9        29.88F                  
PORTLAND, OR   PTSUNNY   85  55  35 VRB5      29.89F                  
$$
 
WAZ021-516-517-080000-
WASHINGTON COAST
  
CITY           SKY/WX    TMP DP  RH WIND       PRES   REMARKS
FORKS          SUNNY     66  56  70 SW10      30.00F                  
HOQUIAM        SUNNY     68  54  60 W13       29.99F                  
ASTORIA, OR    SUNNY     69  56  62 W13       29.98F                  
$$
 
WAZ019-023-024-040-518-519-080000-
CASCADE MOUNTAINS AND COLUMBIA GORGE
  
CITY           SKY/WX    TMP DP  RH WIND       PRES   REMARKS
TROUTDALE, OR  SUNNY     86  54  33 NW7       29.87F                  
THE DALLES, OR SUNNY     98  40  13 NW21      29.76F HX  93           
$$

WAZ026-027-041>044-520-521-080000-
EAST SLOPES
  
CITY           SKY/WX    TMP DP  RH WIND       PRES   REMARKS
OMAK           SUNNY     98  41  14 NW7       29.82F HX  93           
WENATCHEE      SUNNY     98  41  14 SW9       29.79F HX  93           
ELLENSBURG     SUNNY     99  44  15 S6        29.84F HX  95           
YAKIMA         MOSUNNY   98  43  15 VRB5      29.78F HX  94           
$$

WAZ028-034-035-080000-
COLUMBIA BASIN
  
CITY           SKY/WX    TMP DP  RH WIND       PRES   REMARKS
EPHRATA        SUNNY     97  45  16 N5        29.80F HX  93           
MOSES LAKE     SUNNY     96  47  18 VRB5      29.81F HX  92           
PASCO          SUNNY     99  47  17 NE8       29.75F HX  95           
HERMISTON, OR  SUNNY     99  38  12 N6        29.76F HX  94           
$$

WAZ036>038-080000-
NORTHEAST WASHINGTON
  
CITY           SKY/WX    TMP DP  RH WIND       PRES   REMARKS
SPOKANE GEIGER PTSUNNY   90  46  21 NE8G20    29.91F                  
SPOKANE FELTS  SUNNY     92  46  20 VRB5      29.89F                  
FAIRCHILD AFB  SUNNY     89  46  23 NE12      29.91F                  
COEURDALENE,ID MOSUNNY   84  52  32 N17       29.92F                  
DEER PARK      SUNNY     87  51  28 MISG      29.93F                  
$$

WAZ029>033-080000-
SOUTHEAST WASHINGTON
  
CITY           SKY/WX    TMP DP  RH WIND       PRES   REMARKS
PULLMAN        SUNNY     91  43  18 VRB6      29.91F                  
LEWISTON, ID   MOSUNNY   96  48  19 SE10      29.81F HX  92           
WALLA WALLA    SUNNY     97  41  14 W12       29.80F HX  92           
PENDLETON, OR  SUNNY     98  38  12 W9        29.81F HX  93           
$$